Back to catalog

FENGYUN 1C DEB

AliveSSO
NORAD 36687·DEBRIS·🇨🇳 China

Launched May 10, 1999 from Taiyuan Satellite Launch Center

Loading…

Next Passes (next 24 hours)

TLE

FreshSource: Space-Track

Epoch: Sep 11, 2026, 11:20 UTC

1 36687U 99025DZH 26254.47255815 -.00000073  00000-0 -18838-4 0  9995
2 36687  98.6992 334.8104 0090473 218.7699 140.6954 14.04698943665513

Track FENGYUN 1C DEB in real time with AllMySat

Download on the App Store